GFSSE_250_spd_000.txt.gz
Wind_Speed
77 77 77 80 83 86 86 88 93 93 93 91 99 103 101 103 101 101 103 104 98 99 104 95 95 70 58 52 48 47 49 50 50 53 57 56 56 59 59 64 65 65 59
80 81 82 84 87 88 87 89 91 92 96 101 104 104 102 102 103 107 106 103 103 94 85 73 46 41 35 37 36 36 39 39 41 40 40 46 53 59 63 65 56 52 57
80 82 84 86 86 84 85 90 96 97 99 99 105 99 101 105 107 108 105 98 81 83 61 37 28 29 27 25 22 22 22 25 29 32 37 46 51 54 62 67 60 60 61
82 82 84 86 85 87 94 97 99 100 103 104 100 102 104 107 107 99 80 79 66 54 35 29 27 28 27 23 22 21 21 20 20 26 31 39 44 43 47 57 64 73 71
84 79 81 88 95 99 98 100 99 100 99 96 101 104 109 101 88 75 70 57 44 36 31 28 31 31 29 26 25 25 22 23 23 21 27 34 40 44 44 50 67 73 70
88 95 100 99 100 96 95 97 100 98 93 97 102 108 102 82 68 60 48 41 35 33 34 35 35 36 36 35 30 25 25 22 24 24 25 26 32 41 44 47 50 59 70
91 93 92 93 91 94 97 97 96 96 97 102 104 102 83 68 59 48 42 38 36 39 37 39 40 40 39 38 35 32 23 24 26 26 29 26 23 29 37 44 46 52 74
80 84 88 90 94 93 91 91 95 98 101 101 94 74 64 57 50 43 39 38 36 37 38 43 43 45 45 41 37 32 27 23 24 26 27 27 18 20 25 33 41 47 57
86 89 90 91 89 90 93 94 96 98 86 77 62 58 55 45 41 38 38 41 41 41 44 48 49 49 48 40 38 33 32 24 24 25 22 25 15 20 22 31 32 34 50
87 92 91 92 92 93 94 93 94 89 78 55 57 49 49 41 43 45 45 46 51 52 53 55 55 51 47 40 39 36 32 28 24 22 22 20 24 17 22 28 28 28 30
90 90 93 91 91 91 89 88 83 65 59 59 55 50 47 45 46 46 47 50 50 53 54 52 48 46 42 40 39 36 34 30 29 26 24 19 19 17 21 26 28 27 27
87 88 87 86 86 88 85 71 56 57 53 52 48 50 49 48 50 52 55 54 56 56 54 46 41 42 41 42 41 39 38 35 32 30 27 21 16 18 18 33 38 34 37
83 88 87 84 85 79 65 62 52 49 47 48 50 55 56 54 55 54 55 56 54 51 48 48 46 43 43 43 44 46 45 41 38 35 32 31 28 25 23 24 35 41 42
85 79 84 80 76 67 53 47 48 48 50 50 47 46 50 55 57 55 52 48 49 49 50 49 46 48 49 49 49 47 45 44 44 42 41 38 37 33 31 31 29 38 49
77 70 67 69 62 52 49 49 48 46 47 42 48 52 55 57 53 48 49 50 51 48 48 49 52 50 50 50 51 51 52 51 48 46 44 45 44 43 38 34 38 35 38
68 66 61 57 57 50 50 44 48 46 44 48 53 58 58 56 56 53 49 48 55 54 54 54 55 54 56 56 57 56 55 53 53 52 48 48 48 47 45 40 39 44 44
72 65 61 56 48 48 50 54 49 54 54 49 57 60 61 59 59 53 56 58 58 56 55 55 57 59 58 58 57 56 54 56 58 58 57 56 54 55 52 50 45 43 50
53 45 43 46 46 51 52 58 58 61 52 53 56 60 63 59 56 57 61 65 65 64 62 61 61 63 62 63 63 61 61 63 64 67 64 63 61 59 59 57 55 54 49
47 46 43 40 48 53 55 57 58 59 57 58 60 63 61 60 60 61 65 66 65 66 69 69 69 66 68 68 68 67 67 69 72 73 71 70 69 69 68 69 68 65 63
49 42 41 42 47 48 52 54 55 56 60 63 66 67 63 63 64 68 71 71 70 70 73 76 75 74 76 76 76 77 78 81 83 83 81 80 80 79 79 79 79 77 75
44 41 40 46 47 48 52 56 58 61 63 67 68 63 65 68 72 73 74 75 77 79 80 80 80 82 84 83 82 83 84 86 88 93 93 92 90 91 89 89 88 88 87
45 44 45 46 50 53 54 57 60 65 68 69 65 67 70 74 77 79 82 86 87 88 88 89 90 90 93 94 94 94 92 94 97 98 100 101 99 99 101 100 98 95 94
42 42 43 48 52 53 57 61 65 68 67 68 71 75 79 82 84 87 92 93 92 91 93 95 98 101 104 106 106 108 108 106 105 108 110 108 108 110 111 108 107 108 107
42 45 48 52 55 58 61 64 64 65 68 70 74 79 83 86 90 94 97 98 100 101 105 108 111 114 115 116 117 117 119 118 115 111 113 116 118 119 118 114 112 112 113
46 50 53 55 57 59 60 61 62 65 69 74 79 85 91 94 98 100 103 106 109 113 117 120 125 128 129 129 127 128 129 122 116 114 106 108 110 115 119 120 118 113 113
50 52 55 57 57 58 62 64 68 73 76 80 86 91 96 100 105 109 112 115 119 125 129 133 134 135 136 133 128 123 119 112 106 103 95 90 90 94 97 104 106 106 107

GFSSE_250_spd_003.txt.gz
Wind_Speed
80 82 81 80 83 83 83 84 85 87 90 90 94 95 99 102 103 102 99 98 101 100 99 101 92 89 88 71 56 50 45 44 39 40 41 43 47 51 52 54 57 58 60
80 78 80 82 83 85 86 91 92 94 94 97 94 100 105 102 103 99 98 101 101 100 101 87 85 75 59 49 33 33 32 34 37 38 37 35 36 40 46 46 46 47 53
80 81 84 87 88 88 90 93 95 97 97 95 102 103 103 104 100 97 100 100 101 97 78 78 67 55 44 42 37 34 33 31 29 31 31 33 36 35 36 44 43 44 51
80 83 84 86 89 92 94 96 99 97 99 103 100 100 102 97 97 102 103 100 93 77 69 62 55 44 43 38 38 35 37 34 28 24 25 28 33 35 38 43 48 49 51
81 84 89 89 92 95 97 98 99 100 96 96 100 98 96 96 100 100 99 87 72 69 62 54 44 42 42 42 43 40 42 38 32 24 22 25 29 33 36 41 47 57 56
81 84 89 91 90 89 91 89 91 91 94 98 94 95 96 97 100 97 85 68 67 59 52 47 46 45 43 41 42 43 45 42 35 30 27 30 27 30 30 34 38 47 62
90 90 87 89 93 91 84 88 90 94 95 95 94 96 95 99 98 78 67 60 53 50 47 47 43 44 45 47 48 50 49 42 36 31 30 27 29 28 25 25 29 36 42
78 82 85 89 85 81 86 86 92 93 94 95 95 93 97 90 75 65 58 52 48 45 45 47 51 53 53 53 51 50 47 43 38 36 33 28 26 25 25 25 23 27 36
83 91 84 82 86 90 93 89 92 93 93 93 92 89 84 65 59 55 51 49 48 49 48 50 55 58 57 56 54 49 43 40 36 35 33 33 23 21 20 21 23 27 30
83 84 83 85 87 88 92 90 93 96 94 91 87 83 59 58 54 47 50 48 50 49 50 55 58 57 56 53 44 40 38 39 39 36 35 34 32 22 18 20 23 28 28
85 88 87 87 87 89 90 91 89 93 90 88 80 69 62 53 51 50 53 53 51 53 55 56 55 54 51 45 44 40 39 42 41 39 37 34 34 27 22 14 21 27 27
84 84 86 87 86 88 89 89 88 83 80 79 70 63 54 56 56 53 48 47 52 56 52 46 44 46 46 47 46 42 42 42 43 42 39 36 36 34 28 24 19 31 30
83 81 81 84 88 88 83 85 77 78 79 66 59 57 60 57 53 47 49 53 56 52 51 50 49 50 48 47 48 50 49 47 44 44 43 41 41 41 39 33 28 27 37
76 77 83 78 80 83 76 74 79 70 62 61 58 62 58 58 55 55 51 56 56 55 54 52 46 51 54 52 52 50 47 47 49 50 49 49 47 47 44 43 38 32 31
72 77 81 83 80 85 80 74 65 53 55 57 59 58 58 58 59 59 59 59 61 61 54 53 54 57 57 57 56 56 55 55 56 54 53 52 50 47 43 40 42 42 39
74 76 81 81 82 78 76 64 60 53 56 60 60 62 61 63 64 61 60 60 60 59 56 56 56 57 58 59 60 60 60 61 60 58 56 55 52 50 48 46 45 45 43
81 78 76 75 73 63 57 55 58 57 56 60 62 64 64 62 62 62 64 65 64 61 59 59 60 61 60 62 62 63 65 65 65 63 62 61 57 55 55 53 53 50 49
79 79 75 65 48 41 36 40 49 59 60 63 63 62 63 64 63 68 71 69 68 62 61 64 65 65 65 65 67 69 70 70 70 68 66 66 65 64 62 61 61 59 56
55 54 49 36 32 33 43 55 64 68 67 66 65 64 64 65 69 72 72 72 68 67 68 69 70 70 69 70 73 75 77 77 77 76 77 76 74 73 74 74 72 70 67
47 45 40 37 37 45 56 68 73 72 71 74 71 70 70 71 72 74 74 71 72 73 73 75 76 78 80 81 81 80 81 84 86 84 85 85 84 83 83 83 83 82 80
47 47 41 42 48 53 61 67 70 74 77 77 74 74 75 77 78 76 75 75 76 77 79 80 82 85 89 90 90 88 87 88 90 91 91 92 93 93 94 92 92 91 91
47 48 52 54 54 56 63 69 73 75 74 76 77 77 78 77 77 77 79 80 82 86 89 90 92 93 95 97 96 96 94 97 100 102 104 103 104 105 105 105 102 99 98
49 50 52 53 53 55 58 62 65 69 73 75 75 76 78 79 80 82 86 88 91 94 98 101 103 105 106 108 109 109 108 107 107 113 119 119 116 114 114 113 114 113 110
46 46 50 50 49 53 57 61 65 70 72 73 75 79 81 82 85 88 93 96 101 105 109 112 115 118 120 122 124 125 127 126 125 122 123 126 125 119 117 120 122 123 124
45 49 47 49 53 58 61 65 67 69 72 75 78 80 83 86 90 96 101 106 109 112 118 122 126 128 129 130 129 126 124 124 121 116 111 115 120 124 125 121 120 120 121
44 49 50 53 57 61 63 66 69 71 73 76 78 83 89 96 101 103 109 114 118 122 125 129 129 130 130 129 128 126 123 120 118 116 107 97 99 105 108 113 112 110 109

GFSSE_250_spd_006.txt.gz
Wind_Speed
78 78 77 77 76 79 84 83 84 86 86 88 90 90 93 96 96 96 96 90 94 91 91 91 89 83 86 73 77 77 66 54 47 43 44 46 46 42 38 40 45 47 51
78 78 79 78 82 83 85 87 91 92 91 94 94 95 97 98 96 91 92 95 95 94 93 92 88 85 78 73 73 63 52 46 47 45 43 42 43 42 42 38 35 40 42
82 81 83 82 86 87 92 95 95 91 91 97 97 98 97 98 93 91 93 97 96 93 100 91 85 77 69 64 55 47 47 44 43 43 44 44 42 38 40 38 37 35 35
83 82 85 87 79 91 89 94 91 92 94 96 94 94 96 94 93 93 98 95 95 97 94 82 73 66 60 52 47 46 47 46 44 43 44 39 42 38 35 40 38 34 27
79 82 81 83 84 89 92 90 90 92 94 91 96 96 92 92 95 99 99 97 91 91 84 73 64 61 57 49 48 49 47 46 48 46 45 40 40 40 40 43 38 31 27
79 78 80 75 82 85 89 92 89 88 91 98 91 93 92 95 101 99 99 90 88 86 70 68 61 57 53 46 44 46 47 50 51 50 44 40 40 39 40 40 35 30 23
71 76 80 84 85 91 90 79 85 89 95 87 89 92 93 98 98 95 92 93 89 74 65 58 55 55 47 45 46 48 51 50 50 47 42 39 38 36 36 38 37 26 20
74 75 73 81 82 82 84 83 86 90 88 89 89 93 92 96 96 93 89 84 77 69 59 57 53 52 47 50 53 53 52 48 41 38 37 34 33 32 31 34 35 29 16
75 79 80 80 80 80 84 83 89 91 91 88 88 94 98 96 94 85 83 75 70 63 64 58 53 50 49 53 52 52 47 41 38 36 33 32 30 30 27 30 31 29 21
74 76 79 78 84 82 86 92 92 91 85 88 92 95 97 86 81 79 73 67 61 64 59 51 46 49 51 51 44 41 41 41 39 37 34 33 30 30 28 26 28 31 28
79 80 79 81 85 87 87 87 82 83 85 94 88 86 87 78 78 70 65 70 65 63 54 52 49 48 47 48 52 46 44 41 41 40 41 39 36 32 29 27 28 30 29
78 79 79 80 83 87 82 84 87 88 89 87 89 87 73 76 69 65 65 64 64 60 53 50 50 53 51 52 50 45 45 47 45 43 43 41 36 36 33 32 31 32 30
79 82 82 85 79 78 80 84 84 81 86 81 80 71 70 69 66 71 62 59 62 58 59 57 52 50 54 54 49 44 46 46 48 47 44 43 44 45 42 38 36 34 33
82 81 81 79 79 77 82 81 82 83 77 72 66 63 62 65 65 67 65 63 61 63 59 56 56 57 55 53 51 51 49 48 48 50 50 47 46 47 47 46 40 37 35
74 78 73 78 80 77 81 79 76 70 70 64 63 61 60 59 62 64 65 65 64 61 61 60 61 64 62 57 54 55 56 54 53 52 51 52 51 49 49 48 46 43 38
78 73 74 77 81 80 80 70 66 62 65 62 55 52 52 56 61 67 68 66 65 66 66 66 69 70 67 62 60 60 61 62 59 56 55 56 56 54 52 50 49 47 45
73 77 84 82 79 75 63 58 59 60 62 55 46 45 55 63 69 67 69 70 72 72 71 72 72 72 71 66 65 65 66 65 63 61 59 59 61 62 61 59 55 52 52
79 81 76 71 66 57 45 35 38 56 60 63 61 64 64 72 73 71 75 78 77 75 74 75 76 77 75 71 72 72 72 72 71 70 71 72 71 69 68 66 66 63 59
66 63 60 53 47 37 42 38 53 58 60 64 72 72 74 79 79 79 83 82 81 79 81 83 81 78 76 74 71 73 76 76 76 77 78 79 79 80 80 78 74 72 71
50 48 47 41 38 39 47 54 62 62 70 75 76 80 83 84 85 86 86 84 83 85 84 82 81 80 79 78 80 83 86 87 86 87 88 88 88 89 88 87 86 84 80
45 46 44 34 45 52 54 59 62 67 73 77 81 85 87 87 85 83 83 84 84 82 84 84 86 87 90 89 90 91 94 97 99 99 99 98 99 99 97 95 93 92 91
44 43 44 49 54 58 60 65 69 71 72 74 77 80 80 81 82 84 85 84 86 88 89 89 90 92 95 96 97 99 99 102 105 109 110 111 112 110 108 107 105 103 102
42 46 51 54 56 58 60 62 65 67 69 72 74 76 79 81 84 85 86 89 91 92 93 95 96 97 102 108 111 113 114 113 114 116 117 118 117 114 114 115 115 115 115
45 47 49 51 53 56 56 58 60 63 67 71 74 77 80 84 87 89 90 91 94 95 98 101 106 111 113 116 119 123 126 128 128 124 123 124 125 124 122 124 122 115 119
38 41 45 47 50 53 56 60 62 65 70 73 76 78 80 83 84 86 89 93 98 103 107 110 116 120 122 127 129 131 134 134 130 124 114 117 115 116 116 117 117 114 109
40 43 47 50 53 56 59 62 65 67 69 72 75 76 78 82 86 91 95 100 105 110 112 119 124 128 130 135 135 133 130 124 124 120 112 103 102 104 102 103 104 107 106

GFSSE_250_spd_009.txt.gz
Wind_Speed
82 78 78 80 80 82 82 79 80 80 81 84 87 89 90 92 91 92 93 91 91 87 84 83 88 85 87 83 75 70 68 72 78 72 50 50 48 48 48 50 47 40 40
86 84 86 83 82 83 84 79 81 83 87 89 90 91 90 91 92 89 88 89 91 84 84 88 94 88 87 83 74 67 68 76 64 50 46 48 50 48 46 46 48 43 34
88 86 87 82 82 83 83 81 81 84 88 84 88 86 87 87 93 82 90 91 87 86 92 93 90 87 82 81 69 66 70 60 52 49 50 51 47 44 42 44 40 41 39
87 84 82 82 83 84 82 80 80 81 80 81 81 88 87 89 84 90 91 86 88 92 93 95 87 87 80 72 61 65 58 50 49 49 49 50 48 48 45 42 42 38 39
84 84 84 83 76 70 70 71 81 80 82 84 87 90 92 86 88 85 88 91 94 98 92 90 87 80 73 63 66 54 51 45 45 49 50 51 49 48 41 37 39 36 35
79 80 79 75 69 74 70 75 81 82 81 87 89 91 85 86 87 91 89 91 94 96 91 83 83 75 67 65 57 49 49 43 47 47 46 47 43 41 37 34 34 34 29
62 64 72 72 73 71 76 81 85 85 91 91 87 81 88 88 87 84 94 95 100 88 84 76 74 66 60 57 53 48 42 44 43 45 41 36 37 36 32 29 29 27 23
63 68 69 69 74 80 80 82 85 86 81 78 84 86 81 82 87 94 99 96 90 84 81 74 65 65 56 51 49 42 42 42 38 40 32 31 34 35 31 29 29 26 21
79 71 73 76 77 82 78 81 82 79 83 84 83 87 84 96 97 97 90 89 88 76 71 69 67 60 56 54 42 41 41 42 41 40 32 30 28 32 31 30 31 29 25
82 81 76 76 78 83 80 82 79 81 81 82 91 90 93 91 84 87 82 81 78 68 70 62 61 59 55 45 46 46 42 42 43 40 34 32 31 31 32 31 30 27 26
73 76 80 81 81 76 72 75 74 73 83 90 88 85 83 80 81 79 73 73 68 64 61 58 56 56 53 47 43 42 44 46 45 40 36 35 35 32 30 30 29 28 28
69 65 62 67 72 71 80 83 83 87 85 82 86 86 84 83 79 73 74 71 68 64 54 54 54 54 50 46 42 43 45 48 48 44 40 36 35 34 33 33 35 35 32
66 71 74 70 76 80 79 79 85 79 84 86 86 84 83 80 77 70 72 71 62 56 54 57 56 53 48 47 46 48 52 48 48 48 48 44 41 38 38 38 36 36 36
67 72 72 81 83 85 85 83 82 82 84 84 83 77 72 68 72 75 65 62 55 56 60 62 62 59 59 58 57 56 55 53 52 49 49 49 46 45 46 43 41 40 38
60 60 64 65 69 72 77 79 84 87 83 83 72 70 70 71 60 55 57 58 57 66 65 69 71 69 70 67 65 62 60 59 59 53 52 51 52 51 48 46 45 43 42
68 73 73 75 75 75 76 79 78 78 70 62 64 69 69 69 69 61 70 65 71 72 73 78 78 78 79 77 74 70 68 68 67 63 58 58 56 55 54 52 49 47 47
73 74 69 69 76 82 78 68 67 60 56 42 50 56 63 73 77 75 68 72 80 82 81 83 85 86 85 81 76 73 72 71 69 67 65 64 64 61 60 60 60 59 57
66 65 65 68 67 63 59 55 46 48 45 44 56 65 71 73 76 76 76 81 85 86 88 90 91 85 79 77 76 75 74 73 74 73 71 70 68 67 68 67 66 66 66
59 59 60 56 52 50 50 43 49 48 55 57 59 64 70 73 79 81 87 88 89 91 92 91 85 82 80 79 79 80 82 81 79 78 78 78 78 77 76 76 77 77 76
47 46 46 48 49 50 51 54 56 57 61 63 67 73 78 83 87 89 90 88 85 84 84 84 84 83 84 85 85 85 85 84 83 83 84 84 85 86 86 86 86 85 86
40 41 43 43 46 43 48 53 56 59 62 66 71 76 79 82 85 85 84 84 84 83 85 86 87 88 89 89 88 88 90 91 92 93 93 94 94 96 97 98 98 97 97
40 39 42 43 45 47 50 54 59 64 68 71 74 77 79 80 81 81 82 84 85 85 86 88 89 88 88 89 91 92 94 98 102 106 108 109 110 111 112 112 112 111 108
36 39 41 45 49 52 56 59 62 64 66 67 69 71 73 77 79 80 81 83 85 87 87 88 89 93 97 101 103 107 108 110 114 116 120 121 120 122 124 124 123 123 123
38 41 43 45 46 47 49 53 57 60 63 65 68 71 73 75 77 79 80 82 84 86 87 92 98 103 107 111 113 112 113 114 116 117 121 123 123 123 120 117 115 116 113
35 38 41 43 45 47 51 54 58 62 64 67 69 71 73 74 76 78 80 81 86 91 96 101 107 109 110 112 113 115 117 120 122 122 119 117 117 119 118 115 110 106 105
39 42 46 49 52 54 57 60 62 65 66 68 69 70 72 73 72 75 81 86 93 98 103 109 111 113 113 115 115 115 115 117 119 119 118 116 115 117 112 111 108 103 99

GFSSE_250_spd_012.txt.gz
Wind_Speed
84 83 82 82 83 82 82 84 81 81 83 87 85 81 81 81 84 81 84 84 79 83 89 85 83 83 83 84 87 79 77 62 60 65 65 65 58 52 49 48 49 49 47
81 81 84 83 81 83 84 83 83 82 81 82 80 79 74 77 81 82 84 78 80 85 81 74 82 86 87 89 85 84 73 67 63 60 65 54 53 52 50 52 53 50 46
82 84 84 84 84 83 84 83 83 82 83 80 79 78 81 80 80 85 84 82 84 79 78 83 82 79 87 87 83 81 68 69 57 64 55 51 48 47 48 49 50 49 46
81 84 80 84 84 83 82 81 79 81 85 81 79 78 73 76 81 82 83 86 81 79 81 80 84 88 87 80 74 74 69 61 60 55 53 49 44 45 47 44 42 40 40
76 81 85 81 77 78 78 79 80 80 77 73 70 74 75 80 83 82 84 79 79 82 83 87 88 88 81 76 71 68 61 56 55 52 48 46 47 44 41 35 34 33 33
78 81 81 79 81 74 69 78 67 69 67 72 80 80 81 85 83 81 76 81 83 92 84 91 86 84 79 66 72 61 60 54 52 46 44 44 42 39 33 28 29 26 26
61 62 72 65 64 62 64 71 72 74 79 79 77 83 80 82 81 80 81 83 91 86 88 84 82 76 72 74 63 59 53 47 42 40 42 42 41 37 32 30 26 25 25
78 80 72 69 62 64 63 61 71 71 70 77 80 83 81 75 76 77 82 85 90 80 79 86 80 73 65 60 57 51 44 41 39 40 41 42 41 38 32 28 26 26 28
78 62 63 67 63 79 67 73 74 77 82 78 86 79 73 77 80 80 81 86 85 82 91 79 76 64 67 60 49 45 45 41 39 36 39 42 43 38 33 30 29 28 28
62 65 73 70 64 71 75 71 76 74 76 72 66 74 69 79 82 90 84 85 85 89 85 77 70 67 57 49 42 45 44 40 41 36 39 40 43 43 38 33 31 29 27
70 67 70 72 76 81 71 75 80 77 74 77 74 76 83 82 87 86 83 87 90 86 75 74 66 57 50 44 41 41 39 39 38 38 41 47 44 42 41 37 33 32 30
65 79 80 75 65 65 69 68 62 67 68 71 75 84 86 85 85 87 92 89 85 76 73 77 54 54 48 50 47 46 45 46 47 45 46 46 45 46 44 42 37 35 33
65 67 70 78 79 70 68 67 70 68 72 78 79 79 86 87 89 97 92 87 87 80 74 60 58 56 56 55 55 54 55 56 56 50 50 48 48 46 47 48 46 41 39
55 54 51 51 57 60 61 65 65 69 75 79 82 86 86 88 94 90 85 79 76 65 62 64 63 65 66 66 65 63 66 63 64 57 53 51 51 50 49 51 53 49 44
64 65 66 67 62 62 63 64 70 77 77 77 83 86 90 88 82 84 75 73 64 64 65 67 66 68 73 75 79 74 72 70 67 61 57 58 56 55 53 54 55 55 52
64 65 68 67 65 67 74 80 81 85 85 85 86 83 74 73 66 74 67 70 72 72 72 73 74 79 81 85 82 79 75 76 72 69 68 63 62 58 55 55 57 60 59
61 64 65 69 71 75 75 76 78 76 74 69 70 67 66 61 62 68 71 74 75 75 78 78 83 84 87 88 84 81 79 75 74 72 71 70 65 64 63 60 58 60 61
49 53 55 59 60 65 63 61 50 48 55 59 59 59 59 58 63 68 72 76 82 83 84 90 90 89 84 82 81 80 79 78 75 74 73 73 72 72 69 68 67 66 65
48 53 52 52 54 52 50 51 45 51 56 46 52 53 58 66 69 73 78 83 84 87 91 91 87 84 82 81 82 83 81 80 77 76 73 74 73 75 75 72 74 74 73
44 45 48 47 46 45 46 46 49 53 55 57 62 68 71 75 78 81 85 87 87 87 86 84 83 84 85 83 84 81 78 76 76 79 79 82 82 81 82 82 81 83 82
42 42 43 43 42 42 43 48 52 55 56 60 65 67 71 74 78 81 80 81 82 83 85 85 85 85 84 80 80 80 81 83 83 87 89 94 94 91 93 94 94 94 93
36 36 37 39 41 43 46 48 52 56 59 62 63 64 67 70 73 76 80 82 84 85 84 85 85 85 83 79 83 87 88 93 98 99 102 105 107 106 109 109 108 108 107
32 34 37 39 41 44 46 48 51 54 57 60 64 67 71 73 76 78 81 83 84 84 84 82 80 81 87 91 90 95 101 105 106 112 113 113 116 116 115 117 117 118 120
31 32 35 38 41 44 47 51 55 58 61 65 68 71 73 76 78 80 81 81 82 82 81 80 85 90 92 98 102 107 110 111 116 118 119 117 117 117 115 113 113 115 115
29 33 37 42 46 50 53 57 60 64 67 70 72 74 75 75 74 73 73 73 76 79 83 89 92 95 99 105 111 114 118 122 123 121 115 115 118 118 115 113 112 111 109
35 37 41 45 49 53 56 60 62 65 66 67 68 68 67 66 67 69 71 76 80 85 90 93 97 102 106 112 117 120 122 122 119 117 116 114 116 117 111 107 103 103 100

GFSSE_250_spd_015.txt.gz
Wind_Speed
83 82 80 80 84 84 84 83 83 83 81 80 81 81 83 81 81 83 83 83 80 75 82 78 81 85 87 85 80 83 87 81 86 75 77 71 64 60 60 59 54 52 50
81 78 79 80 84 83 83 82 80 79 80 83 85 85 85 81 82 78 84 82 84 88 81 80 83 89 84 76 83 89 86 80 78 75 81 71 59 60 59 54 54 48 47
77 80 78 79 82 81 79 80 82 84 82 80 81 84 83 80 82 82 80 78 75 76 81 83 83 80 78 80 85 85 79 81 84 82 69 59 58 59 52 52 46 45 45
76 77 80 79 82 83 78 79 71 72 75 77 77 81 79 76 75 71 73 74 80 81 82 78 78 76 80 86 86 78 86 82 85 72 61 58 57 53 50 43 44 45 42
75 75 77 82 85 81 83 80 74 75 71 74 72 72 72 71 72 72 79 81 81 81 82 82 82 81 84 86 81 85 86 81 73 64 59 56 49 47 41 41 40 39 31
57 70 81 80 87 83 82 83 76 77 68 64 60 70 71 72 76 76 75 77 81 87 81 82 78 84 82 79 80 84 79 80 68 60 57 49 44 41 39 37 37 35 31
48 64 73 78 87 81 75 64 65 67 71 71 74 69 65 70 72 71 80 78 80 77 74 71 79 84 77 82 84 78 74 68 60 55 47 45 43 39 39 39 36 34 33
50 57 60 62 51 51 57 65 69 75 69 62 60 67 70 76 75 76 67 75 80 70 77 83 85 77 80 86 80 71 64 60 58 43 43 43 39 37 36 37 37 34 33
46 46 47 50 54 61 72 75 73 68 65 74 75 74 69 69 77 83 83 80 75 72 80 81 80 83 85 82 72 61 62 58 48 38 36 37 38 37 38 39 41 37 34
55 63 58 63 60 65 72 74 69 77 69 75 69 71 80 85 83 81 72 77 75 76 84 82 84 87 80 71 60 57 52 46 45 38 37 37 38 39 40 39 41 40 40
69 72 72 75 76 74 75 73 73 77 77 78 77 83 80 79 75 72 76 78 81 82 84 88 90 78 77 63 49 49 50 46 47 45 45 44 45 45 46 45 42 39 40
68 74 74 72 78 78 71 76 75 83 81 75 77 79 80 76 73 79 80 84 84 85 86 88 81 73 60 52 52 49 49 56 54 46 53 55 52 48 47 47 45 41 39
69 75 77 77 76 75 77 79 71 75 84 79 79 80 79 78 79 83 88 90 87 87 85 75 69 63 56 56 57 56 55 57 65 58 66 54 49 49 46 47 46 46 43
72 77 73 75 75 79 83 85 74 72 70 70 71 75 80 84 89 91 92 89 83 77 68 70 61 64 62 62 63 63 63 67 71 70 54 53 48 48 48 47 49 49 49
60 64 66 72 74 66 62 61 61 68 72 75 81 85 89 92 91 89 84 80 79 74 68 69 66 67 68 69 72 74 76 77 78 68 53 59 58 55 54 54 52 53 54
55 59 61 66 69 70 74 76 77 79 84 88 90 87 87 78 73 73 71 71 72 70 70 69 70 73 73 78 82 82 84 81 79 74 71 63 66 65 63 61 59 57 55
53 55 63 68 73 77 72 74 78 82 79 79 81 72 74 78 72 63 65 66 62 62 69 75 80 82 80 84 87 87 81 77 75 74 75 71 68 66 67 66 65 63 60
54 59 62 65 69 71 69 65 66 66 66 64 64 56 57 60 57 59 60 71 70 74 76 82 86 87 92 89 82 83 80 78 78 77 74 74 72 73 65 65 64 65 63
46 47 51 54 54 55 57 60 62 64 63 61 61 65 66 66 66 72 74 75 80 83 86 88 89 87 84 85 84 82 83 80 81 80 79 76 70 70 71 69 63 71 69
43 46 49 49 51 54 57 59 62 63 64 62 62 62 65 67 71 73 74 78 81 79 78 80 80 84 85 84 85 85 87 86 83 80 77 77 78 77 78 78 81 80 82
42 43 47 48 50 52 54 53 54 53 55 56 58 60 63 64 67 68 70 73 77 82 82 84 86 88 89 90 87 85 85 86 82 83 83 86 88 89 87 88 91 93 96
42 43 44 46 44 43 43 44 46 47 49 51 55 59 63 67 70 74 78 81 83 86 88 89 90 89 88 86 86 82 81 84 90 92 94 95 97 99 102 105 107 107 107
37 35 33 33 33 35 39 43 46 50 55 58 63 67 70 75 78 81 84 87 90 91 92 91 88 84 83 83 87 89 88 90 94 100 105 108 112 114 116 118 119 118 117
23 25 28 31 35 39 43 47 50 54 56 59 61 63 67 69 73 75 77 77 78 76 76 77 79 81 85 89 91 95 98 101 104 104 110 116 121 125 126 126 121 118 117
23 26 31 34 38 42 46 48 49 49 51 52 54 58 60 64 66 69 69 70 71 74 75 79 83 88 89 92 99 104 108 112 115 117 117 120 124 125 126 124 121 118 114
25 29 33 36 39 41 44 46 49 53 56 58 60 62 64 66 67 69 70 71 73 76 80 82 85 91 96 103 109 113 116 119 119 120 119 114 113 115 115 117 115 109 104

GFSSE_250_spd_021.txt.gz
Wind_Speed
77 75 75 74 74 72 68 70 70 71 73 71 70 71 73 74 77 76 79 77 77 76 76 71 70 71 70 69 68 69 72 75 75 78 77 76 72 74 72 75 83 80 80
79 76 76 77 78 72 63 70 74 76 69 71 70 73 72 75 74 74 74 69 67 74 74 76 73 68 62 63 68 69 71 72 70 76 79 79 71 73 72 79 83 83 81
77 75 75 80 79 73 71 74 79 73 70 75 72 71 71 72 70 72 72 73 71 73 71 66 62 60 69 73 72 67 70 70 73 78 77 74 70 71 78 83 86 84 73
80 79 75 76 74 76 79 76 70 69 72 70 73 70 71 73 72 73 76 73 73 71 66 67 68 73 72 64 65 74 74 70 73 77 79 73 71 78 81 87 90 79 70
77 76 70 68 71 71 76 64 66 71 70 75 70 64 69 63 69 72 76 77 65 64 67 71 69 64 66 72 75 71 73 73 76 72 71 72 79 84 88 90 84 70 60
61 68 67 66 66 63 70 71 71 71 69 70 65 67 64 61 64 65 61 59 60 64 60 60 61 64 67 79 78 75 75 71 66 73 73 75 86 88 92 89 73 61 52
51 51 54 54 58 66 62 67 65 61 58 63 60 60 61 56 57 57 60 64 63 67 62 67 67 77 80 73 77 79 72 77 74 80 86 85 90 91 95 75 65 54 47
40 45 45 49 52 56 62 62 60 53 57 59 59 57 52 58 55 59 63 64 64 65 66 71 79 73 72 75 75 77 84 80 80 87 86 88 91 87 75 62 53 47 46
43 47 49 49 56 55 59 57 60 58 49 46 48 46 50 53 59 60 67 66 66 69 80 81 74 77 78 79 82 81 85 86 85 86 92 93 90 75 60 54 53 50 48
47 39 40 35 42 56 59 61 55 47 41 46 47 50 51 58 62 66 68 69 75 77 76 71 72 75 80 84 89 85 89 94 89 92 95 93 76 62 56 53 53 51 50
34 29 31 38 57 59 52 40 39 42 48 49 51 53 57 61 65 71 71 81 79 71 72 73 81 89 89 87 90 92 94 94 96 99 90 80 66 61 57 55 52 52 55
36 32 40 46 44 40 40 45 48 53 53 60 56 57 64 68 67 65 70 77 73 75 82 87 93 93 91 91 96 96 102 97 95 78 69 65 59 55 50 49 51 56 52
30 31 40 57 63 59 49 44 53 56 56 55 55 61 66 70 70 80 70 78 84 85 84 87 90 89 92 97 98 96 92 87 80 70 69 64 63 57 53 53 55 57 56
40 41 39 50 59 58 56 60 57 62 67 65 68 70 72 78 79 79 82 82 81 89 93 95 97 99 96 96 95 90 85 83 81 78 72 68 66 61 65 68 65 63 62
49 47 53 60 61 62 64 66 69 75 80 79 76 79 82 84 84 84 91 93 95 97 97 99 96 95 96 94 88 84 80 78 81 83 79 78 77 75 69 73 73 66 63
54 60 61 67 70 69 71 77 81 77 77 82 82 87 94 97 98 98 98 96 95 96 98 100 93 93 90 88 83 80 79 80 83 88 87 85 85 86 78 71 71 71 66
57 59 58 66 74 79 79 82 86 90 89 90 90 93 95 99 98 97 96 97 90 89 91 92 94 92 88 83 84 86 85 82 81 83 84 81 80 83 84 82 81 79 76
44 56 56 72 76 76 74 78 82 87 88 86 90 92 89 91 92 94 94 91 89 88 90 87 83 80 80 81 82 85 86 87 88 90 86 84 82 81 79 79 80 74 70
50 51 54 57 60 65 75 83 83 80 82 84 81 83 87 88 83 83 84 83 83 80 76 75 76 77 79 80 79 80 80 78 78 79 78 78 75 73 73 71 69 70 70
45 46 44 46 49 51 57 62 68 71 77 84 82 81 76 75 74 75 74 71 72 72 74 74 74 75 75 75 77 78 80 78 77 77 77 78 77 77 79 78 78 77 78
44 42 45 50 55 57 59 60 62 65 68 67 68 68 67 66 64 63 64 63 65 67 69 71 73 74 76 79 80 80 79 79 79 79 82 85 87 88 88 88 88 88 87
43 38 47 48 52 51 51 55 55 57 58 58 56 55 54 56 55 54 57 62 64 67 70 72 72 75 77 79 78 77 76 78 81 82 85 89 92 96 99 100 100 99 98
42 42 43 48 51 52 51 51 51 47 45 48 50 50 50 50 53 57 62 66 69 72 74 76 77 77 77 77 79 78 77 78 82 87 93 97 101 105 108 112 112 111 110
40 37 39 43 43 44 45 40 41 42 43 42 44 48 52 56 60 62 67 69 72 75 78 78 78 79 79 80 82 85 88 89 91 93 98 100 104 108 112 116 116 112 109
31 33 34 35 35 36 39 41 40 39 41 44 46 51 55 58 62 67 71 75 79 82 81 79 79 81 83 87 91 94 97 100 100 99 97 98 99 100 101 105 105 101 100
27 28 29 33 36 38 38 41 42 44 49 51 54 58 62 66 70 75 79 82 85 82 82 82 84 89 94 96 99 102 103 97 96 96 98 98 95 100 103 104 103 99 97

GFSSE_250_spd_024.txt.gz
Wind_Speed
80 77 77 75 75 74 76 76 73 75 73 73 74 65 71 72 75 72 73 74 76 73 75 74 70 68 64 65 68 67 62 60 64 67 69 67 70 67 66 69 72 74 75
82 79 79 78 76 76 78 76 76 74 74 73 68 73 74 76 73 75 76 76 74 74 73 71 67 65 66 66 66 63 61 64 62 63 61 66 67 65 71 76 74 76 76
78 77 78 75 76 79 76 74 75 76 75 71 70 76 73 74 77 76 75 75 73 74 72 69 66 64 68 66 61 63 65 62 64 63 68 71 70 72 74 74 72 74 74
77 77 74 68 70 73 74 76 77 76 73 71 71 74 73 75 76 74 76 76 73 70 70 69 64 57 60 60 57 61 53 57 67 71 77 71 76 76 76 78 74 75 80
75 74 74 74 73 71 72 71 72 69 68 72 74 76 73 73 72 75 74 69 68 67 63 59 57 59 63 62 63 60 59 62 70 68 70 71 76 77 74 77 85 86 88
65 60 64 65 62 58 63 59 62 65 68 70 75 69 68 67 68 69 68 64 63 61 56 56 60 63 67 66 58 59 65 79 74 69 73 73 69 73 81 85 86 83 86
59 50 48 52 53 58 58 59 58 63 67 67 66 60 61 59 62 62 64 59 53 54 55 58 62 65 67 63 64 69 80 81 77 77 67 74 83 91 91 93 87 89 87
26 29 45 46 49 52 54 59 59 52 54 59 55 55 59 61 58 52 51 50 51 54 61 64 66 69 66 72 78 73 65 69 69 75 85 91 89 85 89 91 89 86 75
23 31 40 37 45 51 56 54 54 50 51 53 55 54 58 54 47 50 52 51 50 56 62 64 66 73 72 72 84 77 76 74 81 85 90 91 89 96 92 90 83 67 66
15 40 20 46 49 54 60 59 53 49 49 56 57 51 47 43 51 53 54 56 58 57 61 67 65 73 81 83 76 78 80 87 86 93 90 95 94 88 81 74 69 64 63
50 48 50 56 57 40 42 43 52 52 58 59 50 45 45 51 57 60 57 58 61 68 65 70 74 74 80 87 87 88 92 95 100 102 95 88 87 80 72 64 63 59 61
57 44 43 63 54 47 53 44 57 62 60 54 47 51 53 57 59 61 60 61 60 66 70 81 82 83 84 88 95 98 100 102 102 96 97 91 85 78 77 67 63 64 63
43 57 70 66 62 53 58 65 61 60 54 43 48 56 51 50 49 52 59 66 78 78 77 78 87 91 98 98 96 99 97 92 93 91 92 85 82 77 73 73 71 71 66
37 43 51 62 60 51 52 55 63 60 50 52 57 53 58 60 62 68 70 77 86 91 92 93 100 102 104 97 93 92 88 84 84 86 87 85 83 79 77 77 76 78 77
48 44 43 52 49 56 59 61 64 67 67 66 66 72 73 74 76 78 81 83 83 89 91 93 94 94 95 94 91 88 88 88 86 88 84 82 80 80 80 79 79 77 79
48 53 53 49 52 52 59 63 69 74 76 77 76 80 82 86 88 87 88 89 95 98 97 97 94 92 90 89 89 92 93 88 88 87 85 85 86 86 86 85 85 86 84
52 54 59 55 58 59 64 71 70 72 76 79 84 85 87 90 92 95 98 96 97 92 91 92 89 87 89 87 83 84 87 89 88 88 88 84 82 78 76 74 74 75 78
54 59 55 57 59 62 63 68 70 73 77 81 84 87 88 89 90 92 88 85 88 89 87 86 81 79 79 81 81 83 84 84 83 84 83 82 82 80 80 76 75 74 73
49 53 58 55 55 57 73 72 72 73 76 76 73 69 72 76 80 90 86 80 80 80 81 75 73 72 74 76 78 81 81 81 82 82 83 82 81 79 78 77 77 77 76
50 52 53 54 58 59 61 69 76 73 67 67 69 69 73 77 78 78 80 76 73 72 73 69 69 73 77 81 82 83 83 83 81 82 83 82 82 82 82 80 80 80 81
46 49 53 57 64 65 62 59 59 61 63 67 70 69 71 72 72 70 70 70 69 66 66 67 72 75 79 82 84 85 84 83 81 80 81 84 88 90 91 91 92 92 91
50 54 55 53 51 51 52 53 59 61 61 62 64 66 67 66 65 65 65 62 62 64 68 72 76 80 84 86 85 81 79 81 85 90 91 91 94 99 99 101 101 100 100
39 40 42 45 46 49 51 53 56 57 59 59 60 60 60 61 62 61 60 62 64 68 74 78 83 87 88 85 82 81 82 85 89 93 96 101 106 106 104 102 101 103 103
43 36 40 41 41 43 47 49 49 51 50 52 54 58 60 62 60 63 65 67 70 73 78 82 87 89 88 86 86 86 89 92 95 98 100 105 104 102 101 102 105 106 102
31 30 37 37 38 44 43 42 43 45 48 53 56 59 60 62 66 69 70 70 72 76 82 87 89 88 88 88 89 93 97 101 104 106 108 106 101 101 100 102 103 100 98
28 31 32 36 35 34 38 41 44 47 52 55 59 61 62 64 65 66 68 70 75 81 86 89 90 89 88 90 92 96 101 105 109 112 110 104 104 103 103 105 103 101 95

GFSSE_250_spd_027.txt.gz
Wind_Speed
81 80 77 76 75 74 75 74 75 75 74 76 72 72 71 72 71 73 73 69 73 75 77 78 75 76 76 74 76 74 69 70 69 67 65 61 62 63 63 62 64 60 58
79 79 79 77 77 77 77 77 78 76 78 76 75 74 73 74 74 75 74 73 74 76 78 78 74 74 72 73 74 70 62 65 63 60 55 56 57 52 62 65 64 61 66
79 75 74 75 73 73 74 74 76 76 74 72 74 74 74 74 75 77 76 76 77 77 76 76 72 71 74 68 66 63 60 61 58 56 59 60 56 62 66 70 60 63 69
78 76 73 71 70 72 73 73 76 73 72 73 77 76 74 75 75 77 77 76 77 77 78 75 73 69 62 59 57 54 59 62 59 61 65 57 62 64 74 65 68 68 64
77 73 69 69 68 72 72 68 66 66 68 68 71 73 72 73 73 74 74 74 77 75 71 72 67 63 58 52 54 54 59 65 66 65 63 64 67 75 69 70 67 68 76
71 63 62 65 67 65 65 63 60 61 64 69 69 69 69 68 70 70 70 65 60 65 65 64 65 53 43 48 52 58 60 64 62 61 64 76 78 74 70 67 67 76 85
53 52 53 56 54 52 48 48 50 54 56 59 61 66 67 68 68 70 63 58 63 64 64 58 52 54 46 51 58 60 63 63 63 68 72 72 78 68 70 78 87 91 101
42 43 42 36 39 41 46 49 52 52 51 56 61 62 62 63 65 63 60 63 60 53 55 54 51 49 51 51 56 60 65 61 64 69 80 74 73 79 84 88 97 100 99
28 24 27 32 42 46 42 41 44 45 50 55 55 54 56 56 58 58 62 59 51 50 50 52 58 59 63 62 61 61 56 68 70 77 79 81 89 92 95 97 95 96 89
33 19 25 33 31 40 43 41 46 48 48 50 50 46 50 52 58 58 58 57 56 54 58 59 63 66 61 57 60 62 72 77 79 83 85 91 94 104 102 98 90 89 79
36 20 18 34 38 40 48 49 52 56 47 46 45 46 54 61 51 51 46 52 55 58 60 64 66 63 58 65 74 80 83 85 86 88 95 101 98 91 93 89 84 80 75
34 35 47 27 42 54 54 51 52 46 45 53 42 44 46 55 54 56 57 59 58 56 54 54 66 66 72 79 83 86 94 94 96 96 97 96 92 84 83 79 76 73 70
48 52 53 54 52 54 54 52 52 54 47 53 58 54 65 61 67 60 61 48 57 69 69 71 76 81 84 88 92 100 101 102 101 94 87 82 80 78 76 75 73 74 74
48 54 54 56 60 58 59 64 58 58 63 63 63 66 70 71 64 60 68 69 76 77 80 89 87 90 93 97 100 103 100 93 86 85 94 88 81 78 78 77 79 78 77
57 55 58 58 61 55 59 63 57 56 62 61 62 64 66 66 69 68 74 85 85 85 92 95 95 97 97 98 89 84 87 86 80 80 78 77 77 79 78 78 77 77 77
57 57 56 63 63 63 66 61 64 67 68 69 65 66 70 73 75 81 83 87 92 92 98 91 86 84 87 89 88 84 80 76 73 72 73 77 77 78 78 78 78 78 78
52 57 57 53 60 54 54 61 63 64 63 64 64 72 77 79 81 80 83 83 78 75 74 76 79 81 84 87 78 76 74 72 72 76 78 81 80 80 79 76 74 73 72
50 52 53 58 60 60 63 67 66 68 65 66 71 77 81 81 86 87 83 78 77 80 79 78 80 80 77 73 73 74 74 76 79 81 85 88 88 85 78 73 72 71 71
49 53 55 56 61 63 66 65 68 67 70 70 75 80 82 80 79 79 78 78 80 77 77 75 73 73 72 72 72 76 79 82 85 87 90 90 88 83 76 74 74 75 75
48 53 55 60 60 60 64 70 60 65 65 69 70 74 76 75 77 78 78 76 75 74 73 71 70 70 72 75 78 82 85 88 91 92 92 90 87 84 83 84 85 85 85
49 49 53 57 57 60 62 64 69 73 70 69 71 65 70 71 73 73 73 70 69 70 72 71 73 74 77 79 83 87 90 93 96 96 93 91 88 89 91 92 93 94 93
56 51 54 55 62 64 61 61 64 67 67 64 61 63 66 67 66 64 65 67 69 72 75 75 77 81 84 86 87 89 94 97 99 97 95 93 92 94 96 98 101 102 100
54 53 55 59 59 60 62 60 56 54 54 57 59 61 61 59 60 63 67 71 74 76 76 77 79 75 75 81 88 93 95 98 99 97 96 96 98 101 107 110 110 106 103
58 55 52 51 53 50 49 48 49 52 50 54 55 54 55 59 64 68 71 74 75 76 76 75 73 76 82 87 91 94 98 98 96 95 97 100 105 109 111 111 108 105 104
45 47 47 45 42 42 40 41 42 44 46 47 48 53 57 61 62 61 64 67 69 71 70 74 78 81 86 91 93 96 96 96 98 100 103 108 110 110 107 107 107 104 102
46 47 37 34 34 37 38 34 40 45 47 49 53 56 60 62 65 67 68 67 65 70 73 77 81 86 91 93 95 94 94 97 102 108 109 109 107 107 108 109 109 106 108

GFSSE_250_spd_030.txt.gz
Wind_Speed
80 78 76 73 72 71 72 72 71 72 71 73 71 71 73 74 73 76 74 73 75 77 77 77 76 77 76 76 76 76 74 75 73 73 74 75 72 67 64 61 54 55 54
79 79 76 73 71 70 69 71 73 74 75 74 75 72 74 74 72 76 74 73 73 76 77 79 78 77 76 77 78 76 73 71 73 69 63 66 66 61 55 53 57 55 54
81 78 76 70 69 67 67 69 69 71 70 73 73 75 75 76 73 74 73 74 75 77 79 79 79 77 76 77 76 74 74 67 64 62 61 60 58 59 57 57 61 62 55
82 78 77 72 68 69 68 64 64 68 69 70 73 72 76 74 73 74 75 75 75 74 77 78 77 78 76 75 70 67 62 60 54 48 51 51 57 61 62 62 58 64 64
78 78 77 70 69 67 66 68 68 67 70 71 72 72 75 73 71 71 72 72 72 70 72 72 74 72 70 67 66 54 57 60 50 50 51 54 55 58 61 58 57 64 68
78 73 70 64 66 65 70 71 67 61 63 65 65 72 69 66 64 67 68 68 68 68 70 70 70 68 69 65 63 67 60 51 51 53 53 58 60 59 53 58 64 68 68
71 63 60 64 65 66 62 56 58 57 60 61 63 62 60 60 60 61 66 65 64 63 66 65 64 63 62 59 59 51 52 52 52 54 59 56 53 55 57 65 70 72 75
61 55 54 53 54 54 48 46 48 49 52 51 54 54 54 52 53 55 60 62 60 61 63 64 62 59 58 58 52 52 56 56 62 59 55 53 59 69 74 77 74 78 84
50 47 49 44 44 46 44 51 41 42 44 51 48 50 50 49 51 54 54 56 57 60 64 63 60 59 54 59 61 64 60 62 52 56 62 67 74 75 79 84 89 92 94
46 44 42 45 44 39 38 36 41 44 46 48 47 49 49 51 54 53 56 50 57 60 66 64 58 58 61 55 51 44 55 61 62 68 70 76 82 84 86 90 100 99 91
40 44 44 51 37 29 24 36 46 49 42 46 51 55 60 60 57 52 51 48 55 60 59 67 63 62 50 61 67 70 74 72 79 79 82 87 89 94 96 93 85 83 82
45 46 38 33 33 25 31 35 44 47 49 53 52 53 58 54 51 49 52 50 62 67 70 64 67 66 68 70 79 83 81 85 89 91 96 95 98 92 83 79 71 70 69
43 44 41 28 28 38 43 48 51 47 49 50 50 47 40 43 49 56 60 64 65 61 62 64 70 75 79 88 89 91 96 94 97 96 92 85 81 78 74 70 68 70 68
45 36 37 38 41 51 45 52 53 58 48 45 50 48 55 57 61 55 60 64 70 69 70 72 76 82 84 84 87 84 80 79 76 79 75 70 68 65 65 71 75 75 77
52 52 50 52 63 57 57 57 56 54 53 59 59 55 52 54 63 72 72 70 72 76 75 79 87 91 91 90 85 81 77 75 72 67 66 64 64 67 69 72 78 81 84
55 55 57 61 58 63 67 62 58 52 57 57 64 64 68 71 65 67 71 73 74 77 84 89 91 86 88 83 79 75 74 72 69 68 70 70 69 72 74 77 79 82 85
50 50 54 51 59 57 65 65 71 69 68 68 70 69 75 72 74 74 73 78 80 85 85 83 82 82 80 79 78 78 74 71 71 76 75 74 76 78 80 84 84 85 84
52 49 46 55 59 59 57 54 63 66 63 68 63 69 72 74 78 80 79 82 81 82 79 79 77 78 78 77 76 75 75 75 78 78 80 82 84 86 88 87 90 90 88
47 47 55 52 57 58 60 57 59 60 65 69 70 71 72 74 81 84 84 79 77 77 73 73 75 77 75 76 76 78 78 81 82 84 84 86 89 91 92 94 95 93 88
50 55 61 58 63 61 61 62 61 61 66 68 70 70 79 82 79 78 77 70 68 69 72 73 73 73 76 79 80 81 82 84 86 85 85 86 90 94 98 100 99 96 92
52 56 57 59 62 60 62 60 65 68 69 72 75 76 76 73 73 67 65 65 67 68 70 71 73 75 75 78 82 83 83 83 83 84 88 92 96 99 101 103 101 99 95
48 47 52 54 56 55 58 61 67 72 78 81 79 78 75 68 66 63 62 63 64 65 68 69 69 73 76 77 77 77 78 82 85 89 94 97 99 101 101 102 103 103 104
50 55 58 58 60 65 66 63 59 65 70 72 68 62 56 57 57 57 58 60 63 67 71 74 77 79 76 74 77 82 83 86 89 94 96 97 97 100 104 107 110 111 109
44 47 51 48 45 48 51 56 58 58 56 55 54 54 52 54 56 57 61 64 68 71 74 76 76 76 76 79 83 87 90 91 95 95 95 97 101 105 108 113 115 113 111
34 35 41 45 49 54 51 55 55 52 51 52 50 50 54 56 58 61 65 68 71 75 76 75 74 74 78 83 87 89 90 95 98 96 96 101 106 111 114 114 112 111 109
37 37 39 29 39 47 50 49 45 47 48 49 50 53 57 59 63 65 68 70 73 76 74 74 74 79 83 86 88 90 95 97 97 100 103 109 112 114 113 112 110 109 108

GFSSE_250_spd_033.txt.gz
Wind_Speed
85 83 82 81 78 76 73 73 72 72 71 71 72 72 72 71 73 72 73 73 75 76 76 75 75 76 77 79 79 79 79 80 79 79 77 77 75 72 72 68 63 62 60
86 83 81 80 79 78 76 74 74 73 72 74 74 73 71 73 77 74 73 76 77 78 79 78 79 77 77 80 80 80 80 79 78 76 76 72 70 66 62 61 62 60 57
84 82 79 77 77 76 74 73 72 71 71 75 71 71 70 75 77 73 74 76 78 78 79 76 78 77 78 79 79 77 77 75 74 71 70 66 64 63 60 61 56 54 56
84 84 80 79 77 76 71 71 69 69 70 71 71 67 71 73 76 73 75 76 78 77 78 77 74 73 72 75 74 75 72 68 69 71 68 67 65 58 55 54 52 54 55
85 86 82 79 77 75 74 71 71 69 68 69 70 72 73 72 70 70 71 74 74 75 76 74 72 73 72 73 74 73 71 70 65 66 63 60 53 51 54 53 55 55 54
74 77 77 76 73 74 72 68 72 72 72 73 73 67 65 67 67 67 72 71 72 74 72 71 70 67 69 67 66 68 66 66 65 60 59 56 54 53 56 55 59 61 61
72 72 71 70 69 66 67 67 69 69 68 67 63 65 65 66 66 69 67 68 68 68 68 62 61 62 62 64 64 66 63 59 53 55 54 55 56 57 63 57 54 56 58
64 62 59 63 61 68 73 70 59 55 54 56 57 58 56 55 60 60 60 61 62 62 61 58 55 58 56 61 59 62 61 57 57 55 48 51 52 59 54 57 63 69 73
57 50 54 58 58 61 60 54 47 45 45 52 52 51 53 48 54 53 53 57 58 55 55 53 56 56 56 59 63 59 57 54 55 60 54 59 64 68 71 67 76 79 79
45 44 41 46 51 47 33 39 38 41 41 44 48 50 51 51 49 47 49 54 55 60 59 64 59 62 59 65 65 58 62 62 63 64 72 77 73 76 76 81 83 84 86
46 44 46 48 42 40 37 37 35 38 35 44 46 49 47 51 51 54 54 59 62 58 57 50 55 63 67 63 59 64 69 69 74 76 77 82 83 79 78 74 72 72 68
36 41 48 47 47 47 54 51 27 43 42 42 48 52 59 59 55 58 50 58 61 57 54 59 62 68 66 66 67 72 73 78 79 85 85 86 87 78 70 64 61 62 61
34 47 48 52 52 50 57 40 36 51 50 52 50 51 53 47 47 51 49 50 55 56 61 65 64 67 71 72 77 78 83 87 88 89 83 81 71 68 65 66 66 64 62
37 45 50 53 55 48 50 39 47 48 55 57 52 58 58 56 48 53 50 49 54 58 64 66 71 70 74 80 79 86 88 88 84 78 76 72 67 65 65 66 67 68 69
44 48 50 50 46 42 44 49 49 54 57 54 55 60 64 60 54 56 60 64 66 67 70 72 78 80 82 82 85 86 83 79 76 72 70 68 69 70 68 69 73 75 77
47 47 48 45 43 43 43 40 46 50 53 56 47 52 53 58 56 60 63 64 67 74 77 78 80 84 86 84 84 80 75 73 72 71 70 72 73 74 75 75 75 75 77
47 44 50 44 42 44 44 40 49 55 55 47 50 53 49 53 61 66 68 72 80 79 82 84 86 87 84 83 74 68 68 68 72 75 76 77 77 78 79 77 78 80 80
47 47 47 42 46 49 53 45 44 51 51 48 52 56 60 64 70 73 76 78 75 79 87 88 89 81 72 69 67 66 67 70 72 75 77 77 77 77 78 78 80 82 84
40 40 46 43 49 43 48 52 55 55 61 59 61 63 64 70 73 73 77 81 82 84 86 83 76 70 68 68 64 68 70 73 77 76 75 74 75 77 81 83 85 87 90
30 43 48 50 47 50 51 57 53 52 56 63 64 66 66 66 74 75 77 83 86 83 80 73 67 68 66 66 69 71 75 78 78 75 75 78 82 84 87 90 91 93 96
37 40 43 49 42 46 55 57 55 58 62 60 66 68 68 73 75 76 78 82 81 72 70 68 66 66 67 70 73 76 78 77 76 78 81 85 88 90 92 93 97 99 99
41 38 44 50 51 52 55 60 58 60 64 67 69 70 74 72 75 79 80 76 73 68 67 65 66 68 71 74 78 79 76 76 79 83 86 89 89 92 95 99 100 102 102
39 49 52 55 55 51 55 57 63 62 64 67 68 72 74 77 76 74 70 64 62 62 64 66 70 71 72 75 76 76 76 79 83 88 90 91 92 96 99 100 101 105 109
42 44 46 47 48 53 57 60 65 63 57 59 65 66 67 70 66 62 58 59 62 64 67 69 71 75 77 77 76 79 82 87 90 90 91 93 97 100 100 102 107 112 116
49 46 41 40 45 38 38 46 49 52 51 53 57 59 57 57 55 58 58 62 64 67 69 71 74 77 77 77 80 84 87 88 90 91 92 97 100 101 103 109 114 117 117
32 33 33 32 34 36 37 40 43 49 55 51 50 52 52 53 56 58 62 65 68 70 72 73 77 77 78 81 84 87 89 91 93 96 97 100 99 104 111 116 117 116 115

GFSSE_250_spd_036.txt.gz
Wind_Speed
89 86 87 86 85 82 80 78 76 74 73 71 71 69 69 71 72 75 72 74 73 75 75 75 76 77 79 77 78 79 80 78 79 81 80 81 82 81 81 79 72 68 64
89 88 87 87 85 85 82 81 78 76 74 72 72 70 73 75 78 77 75 77 77 77 77 77 78 77 77 77 77 79 79 81 81 81 80 79 77 76 73 66 65 63 61
92 87 88 89 86 86 84 81 78 76 75 73 73 74 76 76 78 79 78 78 77 78 76 76 77 75 76 76 78 79 80 79 76 77 76 76 74 69 66 62 57 56 55
93 90 86 86 86 84 80 79 79 77 76 75 75 76 78 77 80 79 78 77 76 76 76 76 77 76 76 77 77 77 79 75 72 71 71 66 64 64 63 59 54 50 51
88 88 85 89 88 83 81 78 78 75 75 76 77 78 78 79 80 78 75 74 76 76 75 75 78 76 75 74 74 74 72 70 62 61 61 62 58 56 51 52 51 50 53
82 84 86 87 84 82 79 79 76 74 75 75 74 76 76 76 75 74 75 75 74 74 76 74 73 73 73 72 70 67 62 59 58 59 58 59 55 53 54 56 54 55 56
74 67 68 74 77 77 81 79 77 74 75 74 77 75 73 72 73 71 69 70 70 69 71 71 69 67 66 63 62 60 56 51 56 58 55 50 52 54 51 52 46 52 54
58 52 49 52 55 64 66 69 72 72 72 67 65 64 67 66 65 65 64 63 62 62 61 62 62 60 61 61 58 59 57 56 59 56 53 55 54 57 60 58 63 65 63
54 54 50 45 49 50 54 62 62 62 60 60 58 59 59 57 57 58 55 57 56 58 57 60 59 58 56 58 63 59 55 62 64 63 59 63 61 63 66 72 72 72 77
47 39 44 50 49 46 44 36 48 49 45 43 41 45 49 47 53 55 55 55 55 55 56 60 58 58 60 59 58 56 60 64 63 65 66 71 69 70 74 77 76 76 79
45 48 44 42 45 50 48 44 37 34 37 37 39 43 46 51 47 47 54 56 53 57 57 58 60 60 53 51 52 57 65 65 69 74 74 76 78 77 83 83 82 73 68
49 45 55 48 41 41 37 34 32 33 33 25 32 41 45 43 43 50 57 55 55 58 58 55 52 46 55 59 68 62 67 75 77 77 79 80 80 81 81 81 70 66 60
44 45 46 45 44 46 36 37 39 40 32 30 37 41 43 50 53 50 54 58 56 59 50 52 56 62 66 64 71 75 79 83 83 84 84 84 83 81 77 68 63 65 64
35 39 46 48 47 42 48 54 42 44 47 40 45 46 46 51 50 53 57 56 59 62 68 59 64 64 64 74 81 86 84 86 84 83 81 76 73 67 63 65 66 67 69
32 37 44 54 60 55 60 60 52 54 57 48 49 54 55 58 59 62 61 63 60 60 58 63 68 68 70 75 82 82 86 84 84 78 72 64 63 63 65 66 70 72 72
32 34 40 51 51 54 56 55 47 52 57 49 49 53 55 57 58 63 54 56 59 63 64 67 72 78 81 84 86 85 84 77 71 68 63 64 67 69 72 73 72 70 70
30 30 34 45 50 51 54 50 48 46 46 50 50 56 58 57 58 57 60 64 66 69 75 71 73 76 79 84 82 80 77 75 67 66 67 69 71 75 76 76 75 74 73
32 34 42 41 30 42 56 47 48 50 48 51 52 47 50 58 67 69 67 69 70 73 74 71 76 80 82 81 78 76 69 66 67 70 72 75 78 79 77 75 75 76 78
28 31 42 44 35 43 46 41 35 49 46 46 52 58 59 55 55 61 66 73 73 76 75 76 78 80 81 76 74 67 68 68 70 74 77 79 81 80 78 78 80 83 86
23 28 34 38 46 43 47 44 41 46 45 57 53 56 60 68 74 71 71 72 79 76 81 80 81 79 77 74 66 66 68 72 74 78 80 81 80 80 82 85 88 89 90
25 38 30 36 41 46 45 50 52 49 56 56 65 60 69 68 68 68 72 78 80 84 79 81 80 78 74 69 68 67 71 75 79 81 82 81 81 83 86 89 92 91 90
29 35 39 40 44 46 49 51 49 60 62 56 59 62 64 64 69 75 79 74 72 73 76 77 80 70 68 71 71 71 73 74 80 82 83 84 86 89 91 93 93 93 97
29 33 43 36 43 51 52 52 62 60 59 65 65 66 69 76 75 75 72 77 76 77 76 75 68 68 69 70 73 76 78 81 83 80 84 89 91 92 94 93 94 97 95
37 39 37 38 42 53 51 52 58 59 63 65 69 69 71 73 71 73 69 71 69 66 65 66 68 70 73 73 75 80 83 85 85 88 86 89 93 94 94 96 96 95 98
39 38 41 42 44 43 48 54 56 61 60 61 65 63 63 66 66 67 64 62 62 63 68 68 71 74 75 77 80 79 81 84 88 92 94 96 92 93 95 95 97 102 105
40 42 43 44 44 47 45 41 45 44 44 46 46 50 53 57 56 55 57 60 64 66 67 71 74 76 79 80 81 81 83 86 89 92 94 95 95 98 97 99 104 106 110

GFSSE_250_spd_042.txt.gz
Wind_Speed
64 74 87 91 94 91 92 91 90 88 86 84 82 80 80 78 76 75 75 73 73 72 71 71 72 73 75 75 74 74 74 75 75 76 76 76 76 76 75 77 79 79 81
59 66 74 83 92 92 93 93 93 92 90 88 86 82 82 81 80 79 78 76 76 76 74 76 78 78 79 79 77 78 77 77 77 77 78 76 75 76 76 77 80 80 78
60 52 48 62 78 86 89 93 94 94 93 91 89 86 83 83 83 83 82 80 79 79 78 80 81 81 81 80 80 81 81 79 78 78 77 77 77 78 79 78 78 77 73
39 47 55 58 60 76 88 92 94 94 92 90 91 88 87 85 86 85 84 82 82 82 81 83 83 82 83 83 81 82 81 79 78 77 77 77 76 74 73 71 68 64 58
44 57 60 46 47 55 74 85 88 88 90 90 89 89 89 87 87 84 84 82 84 83 84 84 84 83 84 82 81 81 80 79 78 77 75 74 73 71 65 66 63 61 61
36 52 57 56 51 54 55 62 85 85 86 84 88 90 89 87 85 84 84 83 84 85 85 83 84 81 79 79 77 79 77 76 75 72 71 70 65 64 61 60 59 54 57
49 50 46 44 54 57 53 57 56 74 82 86 85 84 84 85 82 82 81 79 82 83 82 81 81 82 81 78 75 75 73 71 69 62 64 63 63 60 60 60 54 56 57
73 64 48 46 49 40 42 49 59 62 65 73 77 83 84 81 78 78 78 76 77 76 77 78 78 75 73 71 66 64 66 65 62 61 61 60 59 62 57 55 61 60 68
59 49 36 21 28 34 35 43 40 42 48 61 70 76 78 77 77 76 72 67 71 74 68 62 60 61 60 58 61 58 57 58 60 58 58 58 55 55 59 63 64 70 73
40 32 27 46 56 38 39 42 30 30 34 44 50 59 61 58 60 59 56 61 52 51 51 54 53 52 56 56 58 54 57 58 55 58 57 55 55 56 61 66 70 76 84
51 56 52 46 40 30 31 30 33 29 33 35 36 40 40 44 45 48 45 37 40 44 48 49 51 51 51 54 55 58 56 60 56 53 58 58 63 63 70 74 77 80 84
65 64 53 47 54 57 57 44 42 38 28 20 23 22 22 27 29 31 33 32 34 42 45 46 47 50 51 49 55 56 57 59 55 56 64 66 72 77 78 81 84 87 91
64 71 55 42 49 56 63 52 45 39 35 27 29 29 29 28 28 31 36 42 43 45 55 51 50 54 54 55 56 57 52 56 65 70 72 75 78 77 84 87 91 93 81
58 70 74 54 53 53 48 48 48 43 43 37 38 38 37 38 41 41 45 46 47 50 54 55 56 56 49 52 59 60 64 66 67 68 71 73 78 80 90 90 85 82 77
72 62 57 62 56 55 51 49 49 47 48 49 41 41 39 39 42 46 45 44 47 50 50 54 55 52 56 64 68 72 71 74 77 77 80 81 84 87 84 80 75 70 71
63 60 54 55 58 57 53 53 50 49 50 48 49 46 45 45 47 50 49 46 50 51 56 53 54 60 62 63 68 70 76 78 76 79 82 85 88 87 82 80 71 68 68
70 67 56 59 56 53 52 58 54 54 53 48 49 53 54 53 49 47 52 55 54 56 57 60 61 63 71 71 70 77 79 85 81 89 89 84 84 83 82 79 70 69 70
61 63 61 58 57 57 52 53 56 58 57 54 53 52 63 56 53 51 46 49 53 58 58 59 62 65 65 70 81 83 78 85 91 87 90 87 85 78 74 75 75 74 75
43 48 50 52 57 59 59 57 58 53 52 56 55 57 58 59 53 56 56 56 55 54 61 67 69 74 78 79 82 84 85 87 90 92 87 82 77 69 69 74 76 78 80
32 36 38 39 46 52 55 57 60 59 53 48 52 55 54 53 52 57 59 55 61 63 64 66 64 71 73 75 80 84 87 90 88 85 82 76 76 78 74 77 80 81 83
20 23 22 21 24 28 31 25 25 47 40 37 44 48 54 57 61 54 59 62 71 68 74 73 80 78 81 86 86 88 87 86 81 71 74 76 75 78 82 85 86 84 86
18 23 23 30 29 31 29 30 36 31 44 48 49 55 57 58 58 60 67 64 62 62 66 73 72 79 83 86 89 89 87 79 71 69 72 78 79 83 86 88 92 92 91
21 27 28 28 33 37 33 43 41 44 47 49 52 50 55 60 65 68 62 67 69 71 76 77 79 84 86 86 82 79 76 76 73 74 75 74 77 85 92 95 92 92 94
28 29 34 37 40 35 39 43 48 47 51 53 50 53 57 60 61 65 64 64 72 76 79 85 87 84 85 80 76 76 76 78 82 81 78 79 82 87 93 95 97 97 97
40 34 37 37 36 38 43 42 43 46 44 54 67 68 63 64 68 69 74 79 79 81 86 84 79 76 76 74 73 76 78 81 83 83 88 92 91 96 97 94 94 96 99
38 43 43 41 41 40 38 42 46 54 54 54 54 59 64 69 73 73 74 76 77 75 74 74 71 70 71 75 80 83 85 83 84 87 90 94 101 104 102 100 99 100 101

GFSSE_250_spd_045.txt.gz
Wind_Speed
45 40 52 46 48 56 66 79 87 89 90 87 86 86 84 81 79 78 76 77 76 76 75 74 73 72 72 70 71 71 72 72 72 74 75 75 75 76 77 77 76 77 76
25 18 41 45 55 52 54 64 76 88 91 90 89 89 88 85 83 82 80 79 80 80 79 79 77 76 75 74 75 75 76 77 76 77 79 79 78 78 77 76 76 77 78
36 34 35 50 54 56 63 62 62 73 86 90 93 91 89 87 85 86 84 82 83 83 83 82 82 80 80 77 78 80 80 79 79 79 79 79 79 77 77 76 77 76 78
27 40 37 39 46 37 50 61 63 73 77 86 89 91 90 89 87 87 86 86 86 85 85 85 85 84 83 81 81 83 82 82 80 82 80 79 78 77 76 77 78 78 78
49 58 42 33 46 40 37 39 43 43 59 77 84 86 89 89 87 87 88 90 88 87 87 87 87 85 84 84 81 85 83 84 82 81 79 79 76 76 76 77 73 75 69
62 41 33 33 35 40 41 50 42 45 36 48 71 82 83 85 89 87 87 90 89 89 87 86 86 85 85 83 82 85 81 81 78 76 76 73 73 75 73 72 70 68 61
66 30 35 14 39 35 35 42 53 48 46 44 49 62 77 79 79 82 85 88 87 85 85 83 83 85 83 80 76 75 79 75 75 70 71 71 69 66 66 64 64 65 59
55 32 36 24 22 38 42 43 45 44 41 37 45 46 48 66 75 76 78 78 79 81 79 80 78 76 77 74 69 68 73 67 64 63 63 62 63 62 61 57 55 56 55
51 45 44 42 44 30 29 35 45 34 34 35 35 38 47 50 61 65 63 70 74 71 69 70 70 65 61 63 61 58 61 63 55 56 60 59 58 60 60 60 58 57 60
60 55 52 42 27 27 37 34 40 41 42 33 30 36 37 44 45 49 55 56 58 62 55 54 57 55 52 48 52 48 51 52 56 58 57 57 57 57 59 60 62 66 70
66 64 58 46 36 27 36 38 52 44 44 42 29 31 26 30 34 31 35 42 50 44 39 39 42 42 46 45 46 44 51 52 51 52 56 56 55 56 59 63 66 72 73
60 74 63 47 46 64 49 49 46 50 47 35 30 25 18 23 26 27 30 33 35 40 37 37 39 47 48 45 47 49 51 46 47 53 57 57 63 67 69 75 75 75 75
65 65 80 69 63 58 57 58 54 38 34 27 29 33 33 23 26 31 37 40 39 43 41 40 46 41 53 54 47 49 46 49 52 58 60 67 64 72 74 73 77 82 84
65 68 72 68 67 68 71 55 56 43 36 38 35 35 27 30 32 34 41 43 42 44 45 48 50 50 47 46 50 49 53 54 57 61 67 65 74 76 79 83 87 84 89
67 73 74 69 58 68 69 66 54 52 51 45 41 46 39 38 41 43 40 42 45 45 47 48 45 45 51 53 55 55 50 60 63 69 74 76 72 80 82 84 85 87 88
67 75 72 72 63 64 66 64 63 61 62 50 47 46 47 46 49 46 45 44 44 44 47 48 50 49 52 52 54 55 62 64 66 70 70 76 80 85 85 86 86 85 84
64 68 69 76 59 63 61 62 54 57 57 52 52 51 53 47 50 52 49 45 47 47 51 53 53 53 53 55 58 61 67 70 73 76 82 83 83 84 83 87 81 79 71
61 58 68 69 72 67 62 57 53 56 54 57 63 60 55 49 52 54 51 52 53 51 51 53 53 54 55 56 62 67 70 72 73 76 75 78 83 88 91 83 76 72 70
63 63 63 63 65 58 56 56 57 59 60 55 54 52 52 55 54 54 55 61 61 56 54 57 59 61 63 67 65 67 71 79 83 86 86 84 83 86 85 76 78 76 73
72 67 64 64 73 69 64 58 61 62 54 55 48 54 53 56 58 60 60 58 55 54 60 59 58 63 67 70 72 74 80 83 83 83 87 89 91 89 80 80 78 78 77
75 68 59 68 72 73 70 68 62 64 64 60 57 55 54 48 51 53 54 54 58 55 56 59 63 62 64 63 65 72 76 81 86 87 88 82 84 81 76 78 82 78 81
36 48 57 66 75 71 68 62 61 59 52 50 57 63 54 57 55 53 57 55 56 60 63 66 69 72 78 78 77 80 87 90 90 83 81 78 76 79 82 83 81 84 87
16 25 29 36 44 47 48 41 38 40 40 37 35 40 51 59 57 51 54 61 59 58 65 67 70 74 75 78 82 87 92 94 91 86 80 77 77 80 84 81 86 91 95
16 18 20 22 22 27 28 31 33 35 36 37 43 43 45 46 51 53 54 55 58 57 63 67 69 76 82 85 88 92 85 84 82 75 78 82 81 83 86 87 91 96 101
28 28 31 37 35 32 35 35 44 45 46 47 53 52 56 60 63 63 65 62 66 66 69 74 78 83 84 83 79 76 75 75 75 80 84 89 86 88 92 92 95 99 104
34 32 32 31 36 38 44 42 45 38 50 58 62 58 63 64 65 69 73 73 77 79 76 78 83 84 78 76 77 76 75 77 79 84 88 88 94 96 99 100 102 105 105